User: anonymous   Login
Location: Rio Negrinho
(26.2394°S, 49.4999°W)
Time: 14:52:54
(UTC+00:00)
Language:

Cosmos 494 Rocket - Orbit

View from above orbital plane
View from above orbital plane
View from above satellite
View from above satellite

Ground track
Ground track

The orbit data is extracted from the following two-line orbital elements,

1  6061U 72043B   20225.03373557  .00000020  00000-0  14382-4 0  9997
2  6061  74.0551 212.6201 0018926  51.4479 308.8369 14.40584573524174
Epoch (UTC): 12 August 2020 00:48:34
Eccentricity: 0.0018926
inclination: 74.0551°
perigee height: 743 km
apogee height: 770 km
right ascension of ascending node: 212.6201°
argument of perigee: 51.4479°
revolutions per day: 14.40584573
mean anomaly at epoch: 308.8369°
orbit number at epoch: 52417

The dashed part of the orbit path shows where the satellite is in the earth's shadow,  

DLR